Skip Page Navigation
NASA JPL Caltech
NASA Logo - Jet Propulsion Laboratory + View the NASA Portal
+ Near-Earth Object (NEO) Program
Search JPL
JPL Home Earth Solar System Stars & Galaxies Technology
JPL Solar System Dynamics
BODIES ORBITS EPHEMERIDES TOOLS PHYSICAL DATA DISCOVERY FAQ SITE MAP
JPL Small-Body Database Browser
Search: [ help ]  
(2005 VX3)
Classification: TransNeptunian Object          SPK-ID: 3299811
Ephemeris | Orbit Diagram | Orbital Elements | Physical Parameters ]

[ show orbit diagram ]
Orbital Elements at Epoch 2456800.5 (2014-May-23.0) TDB
Reference: JPL 2 (heliocentric ecliptic J2000)
 Element Value Uncertainty (1-sigma)   Units 
e .9971514695804514 0.0005595  
a 1451.205529690748 285.14 AU
q 4.133803096341203 0.00027023 AU
i 112.4846704342634 0.0052178 deg
node 255.171231438106 0.0010258 deg
peri 196.519179235626 0.0074048 deg
M .0544658920234777 0.016052 deg
tp 2453745.480872603160
(2006-Jan-09.98087260)
0.049299 JED
period 20192580.07174081
55284.27
5.9512e+06
1.629e+04
d
yr
n 1.782833093745233E-5 5.2544e-06 deg/d
Q 2898.277256285155 569.46 AU
  Orbit Determination Parameters
   # obs. used (total)      50  
   data-arc span      81 days  
   first obs. used      2005-11-01  
   last obs. used      2006-01-21  
   planetary ephem.      DE431  
   SB-pert. ephem.      SB431-BIG16  
   condition code      4  
   fit RMS      .76841  
   data source      ORB  
   producer      Otto Matic  
   solution date      2014-Jun-13 05:37:30  

Additional Information
 Earth MOID = 3.1773 AU 
 T_jup = -0.960 
[ show covariance matrix ]

Ephemeris | Orbit Diagram | Orbital Elements | Physical Parameters ]

Physical Parameter Table
Parameter Symbol Value Units Sigma Reference Notes
absolute magnitude H 14.1 mag n/a MPO97960  
Ephemeris | Orbit Diagram | Orbital Elements | Physical Parameters ]
ABOUT SSD CREDITS/AWARDS PRIVACY/COPYRIGHT GLOSSARY LINKS
FirstGov 2014-Jul-29 18:52 UT
(server date/time)  
NASA Home Page
Site Manager:   Donald K. Yeomans
Webmaster  Alan B. Chamberlin